Time,TemperatureF,DewpointF,PressureIn,WindDirection,WindDirectionDegrees,WindSpeedMPH,WindSpeedGustMPH,Humidity,HourlyPrecipIn,Conditions,Clouds,dailyrainin,SoftwareType,DateUTC
2013-05-20 00:00:00,61.6,60.7,29.57,ENE,59,6.0,9.0,97,0.00,,,0.67,VWS V15.00,2013-05-20 05:00:00,
2013-05-20 00:02:00,61.8,61.2,29.58,NE,54,7.0,8.0,98,0.01,,OVC002,0.00,VWS V14.01,2013-05-20 05:02:00,
2013-05-20 00:07:00,61.8,61.2,29.58,NE,55,4.0,8.0,98,0.02,,OVC002,0.01,VWS V14.01,2013-05-20 05:07:00,
2013-05-20 00:12:00,62.0,61.4,29.58,NE,56,4.0,8.0,98,0.02,,OVC002,0.01,VWS V14.01,2013-05-20 05:12:00,
2013-05-20 00:15:00,61.5,60.9,29.57,NE,46,5.0,9.0,98,0.00,,,0.67,VWS V15.00,2013-05-20 05:15:00,
2013-05-20 00:17:00,62.0,61.4,29.58,ENE,59,5.0,8.0,98,0.02,,OVC002,0.01,VWS V14.01,2013-05-20 05:17:00,
2013-05-20 00:22:00,62.0,61.4,29.58,ENE,59,5.0,8.0,98,0.03,,OVC002,0.02,VWS V14.01,2013-05-20 05:22:00,
2013-05-20 00:27:00,61.8,61.2,29.58,ENE,59,4.0,8.0,98,0.03,,OVC002,0.02,VWS V14.01,2013-05-20 05:27:00,
2013-05-20 00:30:00,61.6,61.0,29.57,NE,40,5.0,7.0,98,0.00,,,0.67,VWS V15.00,2013-05-20 05:30:00,
2013-05-20 00:32:00,61.8,61.2,29.57,ENE,59,9.0,9.0,98,0.04,,OVC002,0.03,VWS V14.01,2013-05-20 05:32:00,
2013-05-20 00:37:00,61.8,61.2,29.57,ENE,59,4.0,9.0,98,0.04,,OVC002,0.03,VWS V14.01,2013-05-20 05:37:00,
2013-05-20 00:42:00,61.8,61.2,29.57,ENE,59,6.0,9.0,98,0.04,,OVC002,0.03,VWS V14.01,2013-05-20 05:42:00,
2013-05-20 00:45:00,61.8,61.2,29.58,NE,44,4.0,9.0,98,0.00,,,0.67,VWS V15.00,2013-05-20 05:45:00,
2013-05-20 00:47:00,61.6,61.3,29.56,ENE,59,7.0,7.0,99,0.06,,OVC002,0.04,VWS V14.01,2013-05-20 05:47:00,
2013-05-20 00:52:00,61.6,61.3,29.56,ENE,59,4.0,7.0,99,0.06,,OVC002,0.04,VWS V14.01,2013-05-20 05:52:00,
2013-05-20 00:57:00,61.6,61.3,29.56,ENE,66,1.0,10.0,99,0.06,,OVC002,0.04,VWS V14.01,2013-05-20 05:57:00,
2013-05-20 01:00:00,61.8,61.2,29.58,NE,54,8.0,8.0,98,0.01,,,0.68,VWS V15.00,2013-05-20 06:00:00,
2013-05-20 01:02:00,61.6,61.3,29.56,ENE,68,4.0,7.0,99,0.04,,OVC002,0.04,VWS V14.01,2013-05-20 06:02:00,
2013-05-20 01:07:00,61.5,61.2,29.56,ENE,67,5.0,9.0,99,0.04,,OVC002,0.04,VWS V14.01,2013-05-20 06:07:00,
2013-05-20 01:12:00,61.5,61.2,29.56,ENE,66,3.0,10.0,99,0.04,,OVC002,0.04,VWS V14.01,2013-05-20 06:12:00,
2013-05-20 01:15:00,62.0,61.4,29.58,NE,56,4.0,8.0,98,0.02,,,0.01,VWS V15.00,2013-05-20 06:15:00,
2013-05-20 01:17:00,61.3,61.0,29.54,ENE,67,7.0,7.0,99,0.03,,OVC002,0.04,VWS V14.01,2013-05-20 06:17:00,
2013-05-20 01:22:00,61.3,61.0,29.54,ENE,67,7.0,8.0,99,0.04,,OVC002,0.06,VWS V14.01,2013-05-20 06:22:00,
2013-05-20 01:27:00,61.3,61.0,29.54,ENE,67,4.0,8.0,99,0.04,,OVC002,0.06,VWS V14.01,2013-05-20 06:27:00,
2013-05-20 01:30:00,61.8,61.2,29.57,ENE,59,4.0,8.0,98,0.04,,,0.03,VWS V15.00,2013-05-20 06:30:00,
2013-05-20 01:32:00,61.2,60.9,29.53,ENE,66,4.0,7.0,99,0.02,,OVC002,0.06,VWS V14.01,2013-05-20 06:32:00,
2013-05-20 01:37:00,61.2,60.9,29.53,ENE,66,3.0,7.0,99,0.02,,OVC002,0.06,VWS V14.01,2013-05-20 06:37:00,
2013-05-20 01:42:00,61.0,60.7,29.53,ENE,65,0.0,7.0,99,0.02,,OVC002,0.06,VWS V14.01,2013-05-20 06:42:00,
2013-05-20 01:45:00,61.6,61.0,29.56,ENE,59,3.0,9.0,98,0.04,,,0.03,VWS V15.00,2013-05-20 06:45:00,
2013-05-20 01:47:00,61.0,60.7,29.53,ENE,63,4.0,5.0,99,0.02,,OVC002,0.06,VWS V14.01,2013-05-20 06:47:00,
2013-05-20 01:52:00,60.7,60.1,29.53,ENE,60,4.0,8.0,98,0.02,,OVC002,0.06,VWS V14.01,2013-05-20 06:52:00,
2013-05-20 01:58:00,60.5,59.9,29.53,ENE,59,0.0,8.0,98,0.02,,OVC002,0.06,VWS V14.01,2013-05-20 06:58:00,
2013-05-20 02:00:00,61.6,61.3,29.56,ENE,68,5.0,10.0,99,0.05,,,0.04,VWS V15.00,2013-05-20 07:00:00,
2013-05-20 02:03:00,60.4,59.8,29.53,ENE,58,0.0,0.0,98,0.01,,OVC002,0.06,VWS V14.01,2013-05-20 07:03:00,
2013-05-20 02:08:00,60.1,59.5,29.53,NE,50,5.0,7.0,98,0.01,,OVC002,0.06,VWS V14.01,2013-05-20 07:08:00,
2013-05-20 02:13:00,59.6,59.0,29.53,NE,44,4.0,8.0,98,0.01,,OVC002,0.06,VWS V14.01,2013-05-20 07:13:00,
2013-05-20 02:15:00,61.5,61.2,29.54,ENE,67,4.0,10.0,99,0.04,,,0.04,VWS V15.00,2013-05-20 07:15:00,
2013-05-20 02:18:00,59.3,58.7,29.52,NE,44,0.0,4.0,98,0.01,,OVC002,0.06,VWS V14.01,2013-05-20 07:18:00,
2013-05-20 02:23:00,59.2,58.6,29.52,NE,44,0.0,4.0,98,0.01,,OVC002,0.06,VWS V14.01,2013-05-20 07:23:00,
2013-05-20 02:28:00,59.0,58.4,29.52,NE,44,0.0,4.0,98,0.01,,OVC002,0.06,VWS V14.01,2013-05-20 07:28:00,
2013-05-20 02:30:00,61.2,60.9,29.53,ENE,66,4.0,8.0,99,0.04,,,0.05,VWS V15.00,2013-05-20 07:30:00,
2013-05-20 02:33:00,58.7,58.1,29.52,NE,44,0.0,0.0,98,0.01,,OVC002,0.07,VWS V14.01,2013-05-20 07:33:00,
2013-05-20 02:38:00,58.6,58.0,29.52,NE,44,0.0,0.0,98,0.01,,OVC002,0.07,VWS V14.01,2013-05-20 07:38:00,
2013-05-20 02:43:00,58.6,58.0,29.52,NE,44,0.0,0.0,98,0.01,,OVC002,0.07,VWS V14.01,2013-05-20 07:43:00,
2013-05-20 02:45:00,61.0,60.7,29.53,ENE,65,0.0,7.0,99,0.02,,,0.05,VWS V15.00,2013-05-20 07:45:00,
2013-05-20 02:48:00,58.6,58.3,29.52,NE,44,0.0,0.0,99,0.02,,OVC002,0.08,VWS V14.01,2013-05-20 07:48:00,
2013-05-20 02:53:00,58.6,58.3,29.52,NE,44,0.0,0.0,99,0.02,,OVC002,0.08,VWS V14.01,2013-05-20 07:53:00,
2013-05-20 02:58:00,58.6,58.3,29.52,NE,44,0.0,0.0,99,0.02,,OVC002,0.08,VWS V14.01,2013-05-20 07:58:00,
2013-05-20 03:00:00,60.5,59.9,29.53,ENE,59,0.0,8.0,98,0.02,,,0.05,VWS V15.00,2013-05-20 08:00:00,
2013-05-20 03:03:00,58.6,58.3,29.52,NE,44,0.0,0.0,99,0.02,,OVC002,0.08,VWS V14.01,2013-05-20 08:03:00,
2013-05-20 03:08:00,58.6,58.3,29.52,NE,44,0.0,0.0,99,0.02,,OVC002,0.08,VWS V14.01,2013-05-20 08:08:00,
2013-05-20 03:13:00,58.4,58.1,29.52,NE,44,0.0,0.0,99,0.03,,OVC002,0.09,VWS V14.01,2013-05-20 08:13:00,
2013-05-20 03:15:00,59.5,58.9,29.52,NE,44,4.0,8.0,98,0.01,,,0.05,VWS V15.00,2013-05-20 08:15:00,
2013-05-20 03:18:00,58.4,58.1,29.52,NE,44,0.0,0.0,99,0.03,,OVC002,0.09,VWS V14.01,2013-05-20 08:18:00,
2013-05-20 03:23:00,58.4,58.1,29.52,NE,44,0.0,0.0,99,0.03,,OVC002,0.09,VWS V14.01,2013-05-20 08:23:00,
2013-05-20 03:28:00,58.3,58.0,29.52,NE,44,0.0,0.0,99,0.04,,OVC002,0.10,VWS V14.01,2013-05-20 08:28:00,
2013-05-20 03:30:00,58.9,58.3,29.52,NE,44,0.0,4.0,98,0.01,,,0.05,VWS V15.00,2013-05-20 08:30:00,
2013-05-20 03:33:00,58.3,58.0,29.52,NE,44,0.0,0.0,99,0.04,,OVC002,0.10,VWS V14.01,2013-05-20 08:33:00,
2013-05-20 03:38:00,58.1,57.8,29.52,NE,44,0.0,0.0,99,0.04,,OVC002,0.10,VWS V14.01,2013-05-20 08:38:00,
2013-05-20 03:43:00,58.0,57.7,29.52,NE,44,4.0,5.0,99,0.04,,-RA,0.10,VWS V14.01,2013-05-20 08:43:00,
2013-05-20 03:45:00,58.6,58.0,29.52,NE,44,0.0,0.0,98,0.01,,,0.07,VWS V15.00,2013-05-20 08:45:00,
2013-05-20 03:48:00,58.0,57.7,29.51,NE,44,0.0,4.0,99,0.04,,-RA,0.11,VWS V14.01,2013-05-20 08:48:00,
2013-05-20 03:53:00,57.8,57.5,29.51,NE,44,4.0,7.0,99,0.04,,-RA,0.11,VWS V14.01,2013-05-20 08:53:00,
2013-05-20 03:58:00,57.8,57.5,29.51,NE,44,5.0,7.0,99,0.04,,-RA,0.11,VWS V14.01,2013-05-20 08:58:00,
2013-05-20 04:00:00,58.6,58.3,29.52,NE,44,0.0,0.0,99,0.02,,,0.08,VWS V15.00,2013-05-20 09:00:00,
2013-05-20 04:03:00,57.6,57.3,29.51,NE,44,0.0,0.0,99,0.03,,-RA,0.11,VWS V14.01,2013-05-20 09:03:00,
2013-05-20 04:08:00,57.6,57.3,29.51,NE,44,0.0,0.0,99,0.04,,-RA,0.12,VWS V14.01,2013-05-20 09:08:00,
2013-05-20 04:13:00,57.6,57.3,29.51,NE,44,0.0,0.0,99,0.04,,-RA,0.12,VWS V14.01,2013-05-20 09:13:00,
2013-05-20 04:15:00,58.4,58.1,29.52,NE,44,0.0,0.0,99,0.03,,,0.09,VWS V15.00,2013-05-20 09:15:00,
2013-05-20 04:18:00,57.5,57.2,29.50,NE,44,0.0,0.0,99,0.03,,-RA,0.12,VWS V14.01,2013-05-20 09:18:00,
2013-05-20 04:23:00,57.5,57.2,29.50,NE,44,0.0,6.0,99,0.03,,-RA,0.12,VWS V14.01,2013-05-20 09:23:00,
2013-05-20 04:28:00,57.3,57.0,29.50,NE,44,0.0,6.0,99,0.03,,-RA,0.12,VWS V14.01,2013-05-20 09:28:00,
2013-05-20 04:30:00,58.3,58.0,29.52,NE,44,0.0,0.0,99,0.04,,,0.10,VWS V15.00,2013-05-20 09:30:00,
2013-05-20 04:33:00,57.3,57.0,29.50,NE,44,0.0,0.0,99,0.02,,-RA,0.12,VWS V14.01,2013-05-20 09:33:00,
2013-05-20 04:38:00,57.3,57.0,29.50,NE,44,0.0,0.0,99,0.02,,-RA,0.12,VWS V14.01,2013-05-20 09:38:00,
2013-05-20 04:43:00,57.3,57.0,29.50,NE,44,0.0,0.0,99,0.02,,OVC007,0.12,VWS V14.01,2013-05-20 09:43:00,
2013-05-20 04:45:00,58.0,57.7,29.51,NE,44,0.0,5.0,99,0.04,,,0.10,VWS V15.00,2013-05-20 09:45:00,
2013-05-20 04:49:00,57.3,57.0,29.50,NE,44,0.0,0.0,99,0.02,,OVC007,0.12,VWS V14.01,2013-05-20 09:49:00,
2013-05-20 04:54:00,57.3,57.0,29.50,NE,44,0.0,0.0,99,0.02,,OVC007,0.12,VWS V14.01,2013-05-20 09:54:00,
2013-05-20 04:59:00,57.3,57.0,29.50,NE,44,5.0,6.0,99,0.02,,OVC007,0.12,VWS V14.01,2013-05-20 09:59:00,
2013-05-20 05:00:00,57.8,57.5,29.51,NE,44,0.0,7.0,99,0.04,,,0.11,VWS V15.00,2013-05-20 10:00:00,
2013-05-20 05:04:00,57.3,57.0,29.49,NE,44,6.0,6.0,99,0.01,,OVC002,0.12,VWS V14.01,2013-05-20 10:04:00,
2013-05-20 05:09:00,57.2,56.9,29.49,NE,44,4.0,6.0,99,0.01,,OVC002,0.12,VWS V14.01,2013-05-20 10:09:00,
2013-05-20 05:14:00,57.2,56.9,29.49,NE,44,4.0,6.0,99,0.01,,OVC002,0.12,VWS V14.01,2013-05-20 10:14:00,
2013-05-20 05:15:00,57.6,57.3,29.50,NE,44,0.0,0.0,99,0.04,,,0.12,VWS V15.00,2013-05-20 10:15:00,
2013-05-20 05:19:00,57.2,56.9,29.50,NE,44,4.0,8.0,99,0.00,,OVC002,0.12,VWS V14.01,2013-05-20 10:19:00,
2013-05-20 05:24:00,57.3,57.0,29.50,NE,44,0.0,8.0,99,0.00,,OVC002,0.12,VWS V14.01,2013-05-20 10:24:00,
2013-05-20 05:29:00,57.3,57.0,29.50,NE,44,0.0,8.0,99,0.00,,OVC002,0.12,VWS V14.01,2013-05-20 10:29:00,
2013-05-20 05:30:00,57.3,57.0,29.50,NE,44,0.0,6.0,99,0.03,,,0.12,VWS V15.00,2013-05-20 10:30:00,
2013-05-20 05:34:00,57.3,57.0,29.50,NE,44,0.0,0.0,99,0.00,,OVC002,0.12,VWS V14.01,2013-05-20 10:34:00,
2013-05-20 05:39:00,57.3,57.0,29.50,NE,44,0.0,0.0,99,0.00,,OVC002,0.12,VWS V14.01,2013-05-20 10:39:00,
2013-05-20 05:44:00,57.3,57.0,29.50,NE,44,0.0,0.0,99,0.00,,OVC008,0.12,VWS V14.01,2013-05-20 10:44:00,
2013-05-20 05:45:00,57.3,57.0,29.50,NE,44,0.0,0.0,99,0.02,,,0.12,VWS V15.00,2013-05-20 10:45:00,
2013-05-20 05:49:00,57.3,57.0,29.51,NE,44,0.0,0.0,99,0.00,,OVC008,0.12,VWS V14.01,2013-05-20 10:49:00,
2013-05-20 05:54:00,57.5,57.2,29.51,NE,44,0.0,0.0,99,0.00,,OVC008,0.12,VWS V14.01,2013-05-20 10:54:00,
2013-05-20 05:59:00,57.5,57.2,29.51,NE,44,0.0,0.0,99,0.00,,OVC008,0.12,VWS V14.01,2013-05-20 10:59:00,
2013-05-20 06:00:00,57.3,57.0,29.49,NE,44,3.0,6.0,99,0.02,,,0.12,VWS V15.00,2013-05-20 11:00:00,
2013-05-20 06:04:00,57.5,57.2,29.51,NE,44,0.0,0.0,99,0.00,,OVC008,0.12,VWS V14.01,2013-05-20 11:04:00,
2013-05-20 06:09:00,57.5,57.2,29.51,NE,44,0.0,0.0,99,0.00,,OVC008,0.12,VWS V14.01,2013-05-20 11:09:00,
2013-05-20 06:14:00,57.6,57.3,29.52,NE,44,0.0,0.0,99,0.00,,OVC008,0.12,VWS V14.01,2013-05-20 11:14:00,
2013-05-20 06:15:00,57.2,56.9,29.50,NE,44,6.0,6.0,99,0.01,,,0.12,VWS V15.00,2013-05-20 11:15:00,
2013-05-20 06:19:00,57.6,57.3,29.52,NE,44,0.0,0.0,99,0.00,,OVC008,0.12,VWS V14.01,2013-05-20 11:19:00,
2013-05-20 06:24:00,57.6,57.3,29.52,NE,44,0.0,0.0,99,0.00,,OVC008,0.12,VWS V14.01,2013-05-20 11:24:00,
2013-05-20 06:29:00,57.6,57.3,29.52,NE,44,0.0,0.0,99,0.00,,OVC008,0.12,VWS V14.01,2013-05-20 11:29:00,
2013-05-20 06:30:00,57.3,57.0,29.50,NE,44,0.0,8.0,99,0.00,,,0.12,VWS V15.00,2013-05-20 11:30:00,
2013-05-20 06:34:00,57.6,57.3,29.52,NE,44,0.0,0.0,99,0.00,,OVC008,0.12,VWS V14.01,2013-05-20 11:34:00,
2013-05-20 06:39:00,57.6,57.3,29.52,NE,44,0.0,0.0,99,0.00,,OVC008,0.12,VWS V14.01,2013-05-20 11:39:00,
2013-05-20 06:44:00,57.6,57.3,29.52,NE,44,0.0,0.0,99,0.00,,OVC002,0.12,VWS V14.01,2013-05-20 11:44:00,
2013-05-20 06:45:00,57.3,57.0,29.51,NE,44,0.0,0.0,99,0.00,,,0.12,VWS V15.00,2013-05-20 11:45:00,
2013-05-20 06:49:00,57.6,57.3,29.52,NE,44,0.0,0.0,99,0.00,,OVC002,0.12,VWS V14.01,2013-05-20 11:49:00,
2013-05-20 06:54:00,57.6,57.3,29.52,NE,44,0.0,0.0,99,0.00,,OVC002,0.12,VWS V14.01,2013-05-20 11:54:00,
2013-05-20 06:59:00,57.6,57.3,29.53,NE,44,0.0,0.0,99,0.00,,OVC002,0.12,VWS V14.01,2013-05-20 11:59:00,
2013-05-20 07:00:00,57.5,57.2,29.51,NE,44,0.0,0.0,99,0.00,,,0.12,VWS V15.00,2013-05-20 12:00:00,
2013-05-20 07:04:00,57.8,57.5,29.53,NE,44,4.0,4.0,99,0.00,,OVC002,0.12,VWS V14.01,2013-05-20 12:04:00,
2013-05-20 07:09:00,58.0,57.7,29.53,ENE,58,5.0,9.0,99,0.00,,OVC002,0.12,VWS V14.01,2013-05-20 12:09:00,
2013-05-20 07:14:00,58.1,57.8,29.53,ENE,58,0.0,9.0,99,0.00,,-RA,0.12,VWS V14.01,2013-05-20 12:14:00,
2013-05-20 07:15:00,57.6,57.3,29.52,NE,44,0.0,0.0,99,0.00,,,0.12,VWS V15.00,2013-05-20 12:15:00,
2013-05-20 07:19:00,58.3,58.0,29.53,ENE,63,7.0,7.0,99,0.00,,-RA,0.12,VWS V14.01,2013-05-20 12:19:00,
2013-05-20 07:24:00,58.4,58.1,29.53,ENE,74,4.0,9.0,99,0.00,,-RA,0.12,VWS V14.01,2013-05-20 12:24:00,
2013-05-20 07:29:00,58.6,58.3,29.53,ESE,119,2.0,11.0,99,0.00,,-RA,0.12,VWS V14.01,2013-05-20 12:29:00,
2013-05-20 07:30:00,57.6,57.3,29.52,NE,44,0.0,0.0,99,0.00,,,0.12,VWS V15.00,2013-05-20 12:30:00,
2013-05-20 07:34:00,58.6,58.3,29.53,ESE,122,5.0,7.0,99,0.00,,-RA,0.12,VWS V14.01,2013-05-20 12:34:00,
2013-05-20 07:39:00,60.1,59.8,29.53,SE,134,7.0,12.0,99,0.00,,-RA,0.12,VWS V14.01,2013-05-20 12:39:00,
2013-05-20 07:45:00,61.0,61.0,29.53,SE,141,12.0,14.0,100,0.00,,-RA,0.12,VWS V14.01,2013-05-20 12:45:00,
2013-05-20 07:50:00,61.2,61.2,29.53,SE,144,10.0,16.0,100,0.00,,-RA,0.12,VWS V14.01,2013-05-20 12:50:00,
2013-05-20 07:55:00,61.2,61.2,29.53,SE,135,11.0,16.0,100,0.00,,-RA,0.12,VWS V14.01,2013-05-20 12:55:00,
2013-05-20 08:00:00,61.3,61.3,29.53,SE,144,12.0,16.0,100,0.00,,-RA,0.12,VWS V14.01,2013-05-20 13:00:00,
2013-05-20 08:05:00,61.5,61.5,29.53,SE,139,9.0,14.0,100,0.00,,OVC002,0.12,VWS V14.01,2013-05-20 13:05:00,
2013-05-20 08:10:00,61.6,61.6,29.53,SSE,149,9.0,14.0,100,0.00,,OVC002,0.12,VWS V14.01,2013-05-20 13:10:00,
2013-05-20 08:15:00,61.8,61.8,29.53,SE,140,11.0,14.0,100,0.00,,OVC002,0.12,VWS V14.01,2013-05-20 13:15:00,
2013-05-20 08:20:00,61.6,61.3,29.53,SSE,155,12.0,21.0,99,0.02,,OVC002,0.14,VWS V14.01,2013-05-20 13:20:00,
2013-05-20 08:25:00,61.6,61.3,29.53,SSE,156,11.0,21.0,99,0.04,,OVC002,0.17,VWS V14.01,2013-05-20 13:25:00,
2013-05-20 08:30:00,61.6,61.3,29.53,SSE,159,14.0,21.0,99,0.04,,OVC002,0.17,VWS V14.01,2013-05-20 13:30:00,
2013-05-20 08:35:00,61.8,61.5,29.53,South,172,16.0,27.0,99,0.04,,OVC002,0.17,VWS V14.01,2013-05-20 13:35:00,
2013-05-20 08:40:00,62.0,61.7,29.53,SSE,161,16.0,27.0,99,0.04,,OVC002,0.17,VWS V14.01,2013-05-20 13:40:00,
2013-05-20 08:45:00,62.6,62.3,29.52,SSE,159,14.0,27.0,99,0.04,,OVC002,0.17,VWS V14.01,2013-05-20 13:45:00,
2013-05-20 08:50:00,62.9,62.3,29.52,SSE,151,14.0,19.0,98,0.04,,OVC002,0.17,VWS V14.01,2013-05-20 13:50:00,
2013-05-20 08:55:00,62.9,62.3,29.52,SSE,157,14.0,21.0,98,0.04,,OVC002,0.17,VWS V14.01,2013-05-20 13:55:00,
2013-05-20 09:00:00,62.9,62.0,29.52,SSE,153,14.0,14.0,97,0.04,,OVC002,0.17,VWS V14.01,2013-05-20 14:00:00,
2013-05-20 09:05:00,63.4,62.5,29.52,SSE,161,17.0,18.0,97,0.04,,OVC002,0.17,VWS V14.01,2013-05-20 14:05:00,
2013-05-20 09:10:00,63.5,62.0,29.52,SSE,149,15.0,22.0,95,0.04,,OVC002,0.17,VWS V14.01,2013-05-20 14:10:00,
2013-05-20 09:15:00,63.4,61.7,29.53,SSE,158,12.0,22.0,94,0.04,,OVC002,0.17,VWS V14.01,2013-05-20 14:15:00,
2013-05-20 09:20:00,63.9,61.8,29.53,SSE,147,16.0,21.0,93,0.04,,OVC002,0.17,VWS V14.01,2013-05-20 14:20:00,
2013-05-20 09:25:00,64.3,61.9,29.53,SSE,162,18.0,24.0,92,0.04,,OVC002,0.17,VWS V14.01,2013-05-20 14:25:00,
2013-05-20 09:30:00,64.7,61.4,29.53,SSE,167,14.0,16.0,89,0.00,,OVC002,0.17,VWS V14.01,2013-05-20 14:30:00,
2013-05-20 09:35:00,64.5,60.9,29.53,SSE,165,20.0,25.0,88,0.00,,OVC007,0.17,VWS V14.01,2013-05-20 14:35:00,
2013-05-20 09:40:00,64.2,60.3,29.53,South,175,17.0,25.0,87,0.00,,OVC021,0.17,VWS V14.01,2013-05-20 14:40:00,
2013-05-20 09:45:00,64.3,60.7,29.53,South,186,17.0,19.0,88,0.00,,OVC021,0.17,VWS V14.01,2013-05-20 14:45:00,
2013-05-20 09:50:00,64.5,60.5,29.53,SSE,167,16.0,20.0,87,0.00,,OVC021,0.17,VWS V14.01,2013-05-20 14:50:00,
2013-05-20 09:55:00,64.3,60.3,29.53,South,191,15.0,20.0,87,0.00,,OVC021,0.17,VWS V14.01,2013-05-20 14:55:00,
2013-05-20 10:00:00,64.5,60.5,29.52,South,181,16.0,16.0,87,0.00,,OVC021,0.17,VWS V14.01,2013-05-20 15:00:00,
2013-05-20 10:05:00,65.3,61.3,29.52,SSE,149,11.0,18.0,87,0.00,,OVC022,0.17,VWS V14.01,2013-05-20 15:05:00,
2013-05-20 10:10:00,66.4,61.8,29.52,South,175,13.0,18.0,85,0.00,,OVC022,0.17,VWS V14.01,2013-05-20 15:10:00,
2013-05-20 10:15:00,66.9,61.9,29.52,SSE,168,13.0,13.0,84,0.00,,OVC022,0.17,VWS V14.01,2013-05-20 15:15:00,
2013-05-20 10:20:00,67.1,61.8,29.52,South,183,17.0,18.0,83,0.00,,OVC022,0.17,VWS V14.01,2013-05-20 15:20:00,
2013-05-20 10:25:00,66.8,60.8,29.52,SSE,166,12.0,22.0,81,0.00,,OVC022,0.17,VWS V14.01,2013-05-20 15:25:00,
2013-05-20 10:30:00,64.7,61.4,29.53,South,183,16.0,25.0,89,0.04,,,0.17,VWS V15.00,2013-05-20 15:30:00,
2013-05-20 10:31:00,67.4,61.4,29.52,SSE,161,18.0,19.0,81,0.00,,OVC022,0.17,VWS V14.01,2013-05-20 15:31:00,
2013-05-20 10:36:00,68.1,61.0,29.52,SSE,153,15.0,21.0,78,0.00,,OVC022,0.17,VWS V14.01,2013-05-20 15:36:00,
2013-05-20 10:41:00,68.4,60.9,29.52,SSE,165,17.0,22.0,77,0.00,,OVC026,0.17,VWS V14.01,2013-05-20 15:41:00,
2013-05-20 10:45:00,64.3,60.7,29.53,SSE,161,19.0,25.0,88,0.00,,,0.17,VWS V15.00,2013-05-20 15:45:00,
2013-05-20 10:46:00,68.9,61.8,29.51,South,183,17.0,18.0,78,0.00,,OVC026,0.17,VWS V14.01,2013-05-20 15:46:00,
2013-05-20 10:51:00,68.4,60.5,29.51,SSE,162,17.0,24.0,76,0.00,,OVC026,0.17,VWS V14.01,2013-05-20 15:51:00,
2013-05-20 10:56:00,68.6,61.1,29.51,SE,143,22.0,24.0,77,0.00,,OVC026,0.17,VWS V14.01,2013-05-20 15:56:00,
2013-05-20 11:00:00,64.5,60.5,29.52,South,174,12.0,20.0,87,0.00,,,0.17,VWS V15.00,2013-05-20 16:00:00,
2013-05-20 11:01:00,68.8,60.6,29.51,SE,146,18.0,19.0,75,0.00,,OVC050,0.17,VWS V14.01,2013-05-20 16:01:00,
2013-05-20 11:06:00,69.3,60.7,29.51,SE,138,12.0,21.0,74,0.00,,OVC050,0.17,VWS V14.01,2013-05-20 16:06:00,
2013-05-20 11:11:00,69.3,61.0,29.51,SSE,168,19.0,21.0,75,0.00,,OVC050,0.17,VWS V14.01,2013-05-20 16:11:00,
2013-05-20 11:15:00,66.9,61.6,29.52,South,170,10.0,20.0,83,0.00,,,0.17,VWS V15.00,2013-05-20 16:15:00,
2013-05-20 11:16:00,69.9,60.1,29.51,South,170,16.0,20.0,71,0.00,,OVC050,0.17,VWS V14.01,2013-05-20 16:16:00,
2013-05-20 11:21:00,69.8,60.8,29.51,SSE,160,12.0,20.0,73,0.00,,OVC050,0.17,VWS V14.01,2013-05-20 16:21:00,
2013-05-20 11:26:00,70.3,60.5,29.51,SSE,161,19.0,20.0,71,0.00,,OVC050,0.17,VWS V14.01,2013-05-20 16:26:00,
2013-05-20 11:30:00,67.3,61.3,29.52,SSE,168,13.0,22.0,81,0.00,,,0.17,VWS V15.00,2013-05-20 16:30:00,
2013-05-20 11:31:00,70.4,61.0,29.50,South,170,13.0,15.0,72,0.00,,OVC050,0.17,VWS V14.01,2013-05-20 16:31:00,
2013-05-20 11:36:00,70.1,59.9,29.50,SSE,165,17.0,18.0,70,0.00,,OVC050,0.17,VWS V14.01,2013-05-20 16:36:00,
2013-05-20 11:41:00,69.6,59.4,29.50,SSE,164,20.0,25.0,70,0.00,,BKN035,0.17,VWS V14.01,2013-05-20 16:41:00,
2013-05-20 11:45:00,68.8,60.9,29.51,South,184,11.0,24.0,76,0.00,,,0.17,VWS V15.00,2013-05-20 16:45:00,
2013-05-20 11:46:00,70.6,61.1,29.51,SE,143,14.0,17.0,72,0.00,,BKN035,0.17,VWS V14.01,2013-05-20 16:46:00,
2013-05-20 11:51:00,70.8,61.3,29.51,SSE,165,20.0,20.0,72,0.00,,BKN035,0.17,VWS V14.01,2013-05-20 16:51:00,
2013-05-20 11:56:00,70.8,59.7,29.51,SSE,157,18.0,22.0,68,0.00,,BKN035,0.17,VWS V14.01,2013-05-20 16:56:00,
2013-05-20 12:00:00,68.8,60.2,29.51,SE,143,19.0,24.0,74,0.00,,,0.17,VWS V15.00,2013-05-20 17:00:00,
2013-05-20 12:01:00,70.4,59.8,29.51,SSE,154,14.0,16.0,69,0.00,,BKN033,0.17,VWS V14.01,2013-05-20 17:01:00,
2013-05-20 12:06:00,71.1,59.6,29.51,SSE,154,16.0,20.0,67,0.00,,BKN033,0.17,VWS V14.01,2013-05-20 17:06:00,
2013-05-20 12:11:00,70.9,59.0,29.51,SSE,154,19.0,22.0,66,0.00,,BKN033,0.17,VWS V14.01,2013-05-20 17:11:00,
2013-05-20 12:15:00,69.6,59.4,29.51,SSE,161,15.0,21.0,70,0.00,,,0.17,VWS V15.00,2013-05-20 17:15:00,
2013-05-20 12:16:00,70.8,60.1,29.50,SSE,161,12.0,19.0,69,0.00,,BKN033,0.17,VWS V14.01,2013-05-20 17:16:00,
2013-05-20 12:21:00,70.3,58.4,29.50,SE,142,11.0,19.0,66,0.00,,BKN033,0.17,VWS V14.01,2013-05-20 17:21:00,
2013-05-20 12:26:00,70.8,59.7,29.50,SE,138,14.0,19.0,68,0.00,,BKN033,0.17,VWS V14.01,2013-05-20 17:26:00,
2013-05-20 12:30:00,70.4,61.0,29.50,SSE,155,10.0,21.0,72,0.00,,,0.17,VWS V15.00,2013-05-20 17:30:00,
2013-05-20 12:31:00,70.9,59.4,29.50,SSE,149,17.0,17.0,67,0.00,,BKN033,0.17,VWS V14.01,2013-05-20 17:31:00,
2013-05-20 12:36:00,70.1,58.7,29.50,SE,145,22.0,24.0,67,0.00,,BKN033,0.17,VWS V14.01,2013-05-20 17:36:00,
2013-05-20 12:41:00,69.4,58.8,29.50,SE,139,13.0,24.0,69,0.00,,BKN040,0.17,VWS V14.01,2013-05-20 17:41:00,
2013-05-20 12:45:00,70.3,60.1,29.51,SSE,149,15.0,25.0,70,0.00,,,0.17,VWS V15.00,2013-05-20 17:45:00,
2013-05-20 12:46:00,69.4,59.6,29.50,SSE,155,18.0,25.0,71,0.00,,BKN040,0.17,VWS V14.01,2013-05-20 17:46:00,
2013-05-20 12:51:00,68.9,59.5,29.50,SSE,147,14.0,25.0,72,0.00,,BKN040,0.17,VWS V14.01,2013-05-20 17:51:00,
2013-05-20 12:56:00,68.9,59.5,29.50,SE,141,16.0,25.0,72,0.00,,BKN040,0.17,VWS V14.01,2013-05-20 17:56:00,
2013-05-20 13:00:00,70.3,59.7,29.51,SSE,155,11.0,22.0,69,0.00,,,0.17,VWS V15.00,2013-05-20 18:00:00,
2013-05-20 13:01:00,69.3,59.5,29.51,SSE,155,11.0,15.0,71,0.00,,BKN048,0.17,VWS V14.01,2013-05-20 18:01:00,
2013-05-20 13:06:00,69.8,59.6,29.51,SSE,165,15.0,21.0,70,0.00,,BKN048,0.17,VWS V14.01,2013-05-20 18:06:00,
2013-05-20 13:12:00,69.9,58.9,29.51,SSE,164,18.0,22.0,68,0.00,,BKN048,0.17,VWS V14.01,2013-05-20 18:12:00,
2013-05-20 13:15:00,70.8,60.1,29.50,SSE,164,16.0,22.0,69,0.00,,,0.17,VWS V15.00,2013-05-20 18:15:00,
2013-05-20 13:17:00,71.1,59.2,29.50,SSE,159,19.0,19.0,66,0.00,,BKN048,0.17,VWS V14.01,2013-05-20 18:17:00,
2013-05-20 13:22:00,70.6,59.1,29.50,SSE,151,17.0,20.0,67,0.00,,BKN048,0.17,VWS V14.01,2013-05-20 18:22:00,
2013-05-20 13:27:00,70.6,59.1,29.50,SSE,149,18.0,23.0,67,0.00,,BKN048,0.17,VWS V14.01,2013-05-20 18:27:00,
2013-05-20 13:30:00,71.1,59.2,29.50,SE,133,14.0,19.0,66,0.00,,,0.17,VWS V15.00,2013-05-20 18:30:00,
2013-05-20 13:32:00,69.9,57.6,29.51,SSE,149,14.0,17.0,65,0.00,,BKN048,0.17,VWS V14.01,2013-05-20 18:32:00,
2013-05-20 13:37:00,69.8,58.8,29.51,SSE,158,12.0,17.0,68,0.00,,BKN048,0.17,VWS V14.01,2013-05-20 18:37:00,
2013-05-20 13:42:00,70.8,59.3,29.51,SSE,156,13.0,18.0,67,0.00,,OVC060,0.17,VWS V14.01,2013-05-20 18:42:00,
2013-05-20 13:45:00,69.6,59.8,29.50,SSE,162,17.0,24.0,71,0.00,,,0.17,VWS V15.00,2013-05-20 18:45:00,
2013-05-20 13:47:00,71.5,59.1,29.49,SSE,148,17.0,18.0,65,0.00,,OVC060,0.17,VWS V14.01,2013-05-20 18:47:00,
2013-05-20 13:52:00,71.6,58.8,29.49,SE,138,21.0,22.0,64,0.00,,OVC060,0.17,VWS V14.01,2013-05-20 18:52:00,
2013-05-20 13:57:00,71.8,58.5,29.49,SSE,149,9.0,22.0,63,0.00,,OVC060,0.17,VWS V14.01,2013-05-20 18:57:00,
2013-05-20 14:00:00,69.3,59.5,29.51,South,177,15.0,25.0,71,0.00,,,0.17,VWS V15.00,2013-05-20 19:00:00,
2013-05-20 14:02:00,72.1,58.8,29.49,SE,131,11.0,17.0,63,0.00,,OVC055,0.17,VWS V14.01,2013-05-20 19:02:00,
2013-05-20 14:07:00,70.9,58.1,29.49,SSE,158,14.0,23.0,64,0.00,,OVC055,0.17,VWS V14.01,2013-05-20 19:07:00,
2013-05-20 14:12:00,69.8,57.9,29.49,SSE,156,14.0,23.0,66,0.00,,OVC055,0.17,VWS V14.01,2013-05-20 19:12:00,
2013-05-20 14:15:00,70.9,59.8,29.50,SSE,151,18.0,22.0,68,0.00,,,0.17,VWS V15.00,2013-05-20 19:15:00,
2013-05-20 14:17:00,69.3,58.3,29.49,SSE,160,13.0,19.0,68,0.00,,OVC055,0.17,VWS V14.01,2013-05-20 19:17:00,
2013-05-20 14:22:00,67.9,58.9,29.49,SSE,161,19.0,22.0,73,0.01,,OVC055,0.18,VWS V14.01,2013-05-20 19:22:00,
2013-05-20 14:27:00,67.8,59.2,29.49,SSE,156,21.0,22.0,74,0.01,,OVC055,0.18,VWS V14.01,2013-05-20 19:27:00,
2013-05-20 14:30:00,70.1,58.2,29.51,SSE,165,16.0,23.0,66,0.00,,,0.17,VWS V15.00,2013-05-20 19:30:00,
2013-05-20 14:32:00,66.0,59.0,29.51,SSE,167,22.0,22.0,78,0.06,,OVC055,0.22,VWS V14.01,2013-05-20 19:32:00,
2013-05-20 14:37:00,64.5,59.6,29.51,South,180,23.0,29.0,84,0.10,,OVC055,0.26,VWS V14.01,2013-05-20 19:37:00,
2013-05-20 14:42:00,63.4,59.8,29.51,SSW,200,14.0,31.0,88,0.12,,OVC090,0.29,VWS V14.01,2013-05-20 19:42:00,
2013-05-20 14:45:00,71.3,59.4,29.49,SE,146,15.0,18.0,66,0.00,,,0.17,VWS V15.00,2013-05-20 19:45:00,
2013-05-20 14:47:00,62.9,60.2,29.52,South,188,12.0,17.0,91,0.16,,OVC090,0.33,VWS V14.01,2013-05-20 19:47:00,
2013-05-20 14:52:00,62.7,60.3,29.52,SW,216,7.0,17.0,92,0.19,,OVC090,0.35,VWS V14.01,2013-05-20 19:52:00,
2013-05-20 14:57:00,62.6,60.5,29.52,SSW,201,11.0,17.0,93,0.20,,OVC090,0.36,VWS V14.01,2013-05-20 19:57:00,
2013-05-20 15:00:00,72.5,58.8,29.49,SE,144,14.0,22.0,62,0.00,,,0.17,VWS V15.00,2013-05-20 20:00:00,
2013-05-20 15:02:00,62.9,61.2,29.52,SSW,192,6.0,10.0,94,0.20,,-RA,0.36,VWS V14.01,2013-05-20 20:02:00,
2013-05-20 15:07:00,63.1,61.3,29.52,South,176,10.0,15.0,94,0.20,,-RA,0.36,VWS V14.01,2013-05-20 20:07:00,
2013-05-20 15:12:00,63.5,61.8,29.52,SSE,168,8.0,15.0,94,0.20,,-RA,0.36,VWS V14.01,2013-05-20 20:12:00,
2013-05-20 15:15:00,69.4,58.0,29.49,SSE,155,17.0,23.0,67,0.00,,,0.17,VWS V15.00,2013-05-20 20:15:00,
2013-05-20 15:17:00,64.0,62.5,29.53,South,178,6.0,11.0,95,0.20,,-RA,0.36,VWS V14.01,2013-05-20 20:17:00,
2013-05-20 15:22:00,64.7,62.9,29.53,SSE,160,10.0,15.0,94,0.20,,-RA,0.36,VWS V14.01,2013-05-20 20:22:00,
2013-05-20 15:27:00,64.8,62.7,29.53,SSE,167,12.0,16.0,93,0.20,,-RA,0.36,VWS V14.01,2013-05-20 20:27:00,
2013-05-20 15:30:00,66.9,59.5,29.51,South,170,20.0,30.0,77,0.05,,,0.22,VWS V15.00,2013-05-20 20:30:00,
2013-05-20 15:32:00,65.0,62.6,29.53,SSE,165,12.0,16.0,92,0.14,,-RA,0.36,VWS V14.01,2013-05-20 20:32:00,
2013-05-20 15:37:00,64.8,61.5,29.53,SSE,166,12.0,18.0,89,0.14,,-RA,0.36,VWS V14.01,2013-05-20 20:37:00,
2013-05-20 15:42:00,64.8,61.2,29.53,South,175,12.0,18.0,88,0.14,,-RA,0.36,VWS V14.01,2013-05-20 20:42:00,
2013-05-20 15:45:00,63.1,60.1,29.52,South,187,12.0,31.0,90,0.14,,,0.31,VWS V15.00,2013-05-20 20:45:00,
2013-05-20 15:47:00,65.8,62.2,29.53,SSE,154,18.0,19.0,88,0.06,,-RA,0.36,VWS V14.01,2013-05-20 20:47:00,
2013-05-20 15:53:00,65.6,61.0,29.53,SSE,148,14.0,19.0,85,0.06,,-RA,0.36,VWS V14.01,2013-05-20 20:53:00,
2013-05-20 15:58:00,66.0,63.0,29.53,South,175,18.0,21.0,90,0.06,,-RA,0.36,VWS V14.01,2013-05-20 20:58:00,
2013-05-20 16:00:00,62.7,60.7,29.52,SSW,193,9.0,17.0,93,0.20,,,0.36,VWS V15.00,2013-05-20 21:00:00,
2013-05-20 16:03:00,66.0,61.4,29.53,SSE,158,11.0,16.0,85,0.00,,OVC060,0.36,VWS V14.01,2013-05-20 21:03:00,
2013-05-20 16:08:00,65.8,60.8,29.53,South,177,15.0,18.0,84,0.00,,OVC060,0.36,VWS V14.01,2013-05-20 21:08:00,
2013-05-20 16:13:00,65.6,61.0,29.53,SSE,160,13.0,19.0,85,0.00,,OVC060,0.36,VWS V14.01,2013-05-20 21:13:00,
2013-05-20 16:15:00,63.9,62.4,29.53,South,169,10.0,15.0,95,0.20,,,0.36,VWS V15.00,2013-05-20 21:15:00,
2013-05-20 16:18:00,66.3,62.0,29.53,South,171,10.0,14.0,86,0.00,,OVC060,0.36,VWS V14.01,2013-05-20 21:18:00,
2013-05-20 16:23:00,66.3,61.7,29.53,SSE,163,13.0,17.0,85,0.00,,OVC060,0.36,VWS V14.01,2013-05-20 21:23:00,
2013-05-20 16:28:00,66.0,61.4,29.53,South,170,7.0,17.0,85,0.00,,OVC060,0.36,VWS V14.01,2013-05-20 21:28:00,
2013-05-20 16:30:00,64.8,62.4,29.53,SSE,165,10.0,16.0,92,0.20,,,0.36,VWS V15.00,2013-05-20 21:30:00,
2013-05-20 16:33:00,66.1,61.8,29.53,SSE,163,10.0,12.0,86,0.00,,OVC060,0.36,VWS V14.01,2013-05-20 21:33:00,
2013-05-20 16:38:00,66.8,62.5,29.53,SSE,160,7.0,12.0,86,0.00,,OVC060,0.36,VWS V14.01,2013-05-20 21:38:00,
2013-05-20 16:43:00,67.3,62.6,29.53,SSE,168,11.0,15.0,85,0.00,,OVC080,0.36,VWS V14.01,2013-05-20 21:43:00,
2013-05-20 16:45:00,65.2,61.6,29.53,SSE,158,14.0,18.0,88,0.14,,,0.36,VWS V15.00,2013-05-20 21:45:00,
2013-05-20 16:48:00,68.1,62.4,29.53,South,184,14.0,19.0,82,0.00,,OVC080,0.36,VWS V14.01,2013-05-20 21:48:00,
2013-05-20 16:53:00,68.4,62.3,29.53,SE,146,17.0,19.0,81,0.00,,OVC080,0.36,VWS V14.01,2013-05-20 21:53:00,
2013-05-20 16:58:00,68.4,61.6,29.53,South,178,17.0,20.0,79,0.00,,OVC080,0.36,VWS V14.01,2013-05-20 21:58:00,
2013-05-20 17:00:00,66.0,61.0,29.53,SSE,168,14.0,21.0,84,0.05,,,0.36,VWS V15.00,2013-05-20 22:00:00,
2013-05-20 17:03:00,68.1,61.3,29.53,South,179,19.0,19.0,79,0.00,,OVC070,0.36,VWS V14.01,2013-05-20 22:03:00,
2013-05-20 17:08:00,68.1,61.7,29.53,SSW,198,8.0,19.0,80,0.00,,OVC070,0.36,VWS V14.01,2013-05-20 22:08:00,
2013-05-20 17:13:00,68.1,61.3,29.53,South,191,21.0,21.0,79,0.00,,OVC070,0.36,VWS V14.01,2013-05-20 22:13:00,
2013-05-20 17:15:00,65.6,61.0,29.53,SSE,168,11.0,19.0,85,0.00,,,0.36,VWS V15.00,2013-05-20 22:15:00,
2013-05-20 17:18:00,67.9,60.8,29.53,South,169,14.0,25.0,78,0.00,,OVC070,0.36,VWS V14.01,2013-05-20 22:18:00,
2013-05-20 17:23:00,68.1,60.3,29.53,South,181,19.0,25.0,76,0.00,,OVC070,0.36,VWS V14.01,2013-05-20 22:23:00,
2013-05-20 17:28:00,67.8,59.6,29.53,SW,225,15.0,26.0,75,0.00,,OVC070,0.36,VWS V14.01,2013-05-20 22:28:00,
2013-05-20 17:30:00,66.0,61.7,29.53,SSE,163,10.0,17.0,86,0.00,,,0.36,VWS V15.00,2013-05-20 22:30:00,
2013-05-20 17:33:00,67.6,59.8,29.53,South,191,18.0,22.0,76,0.00,,OVC070,0.36,VWS V14.01,2013-05-20 22:33:00,
2013-05-20 17:38:00,67.8,60.0,29.53,SSW,202,18.0,29.0,76,0.00,,OVC070,0.36,VWS V14.01,2013-05-20 22:38:00,
2013-05-20 17:43:00,67.8,60.0,29.53,South,186,16.0,29.0,76,0.00,,OVC080,0.36,VWS V14.01,2013-05-20 22:43:00,
2013-05-20 17:45:00,67.6,62.6,29.53,South,170,12.0,15.0,84,0.00,,,0.36,VWS V15.00,2013-05-20 22:45:00,
2013-05-20 17:48:00,67.9,59.7,29.54,SSW,196,13.0,22.0,75,0.00,,OVC080,0.36,VWS V14.01,2013-05-20 22:48:00,
2013-05-20 17:53:00,68.4,60.2,29.54,South,187,11.0,22.0,75,0.00,,OVC080,0.36,VWS V14.01,2013-05-20 22:53:00,
2013-05-20 17:58:00,68.8,61.3,29.54,SSW,192,11.0,22.0,77,0.00,,OVC080,0.36,VWS V14.01,2013-05-20 22:58:00,
2013-05-20 18:00:00,68.3,61.5,29.53,SSW,198,15.0,20.0,79,0.00,,,0.36,VWS V15.00,2013-05-20 23:00:00,
2013-05-20 18:04:00,69.1,60.5,29.54,South,175,14.0,18.0,74,0.00,,OVC080,0.36,VWS V14.01,2013-05-20 23:04:00,
2013-05-20 18:09:00,69.1,60.5,29.54,SSE,168,10.0,18.0,74,0.00,,OVC080,0.36,VWS V14.01,2013-05-20 23:09:00,
2013-05-20 18:14:00,69.1,59.7,29.54,South,177,19.0,21.0,72,0.00,,OVC080,0.36,VWS V14.01,2013-05-20 23:14:00,
2013-05-20 18:15:00,67.9,60.8,29.53,SSW,205,11.0,21.0,78,0.00,,,0.36,VWS V15.00,2013-05-20 23:15:00,
2013-05-20 18:19:00,68.9,59.9,29.54,South,189,17.0,20.0,73,0.00,,OVC080,0.36,VWS V14.01,2013-05-20 23:19:00,
2013-05-20 18:24:00,68.4,59.4,29.54,SSW,196,20.0,23.0,73,0.00,,OVC080,0.36,VWS V14.01,2013-05-20 23:24:00,
2013-05-20 18:29:00,68.1,58.7,29.54,South,172,16.0,23.0,72,0.00,,OVC080,0.36,VWS V14.01,2013-05-20 23:29:00,
2013-05-20 18:30:00,67.8,60.0,29.53,SSW,196,17.0,26.0,76,0.00,,,0.36,VWS V15.00,2013-05-20 23:30:00,
2013-05-20 18:34:00,67.9,58.5,29.54,SSW,196,13.0,17.0,72,0.00,,OVC080,0.36,VWS V14.01,2013-05-20 23:34:00,
2013-05-20 18:39:00,67.8,58.5,29.54,South,177,15.0,18.0,72,0.00,,OVC080,0.36,VWS V14.01,2013-05-20 23:39:00,
2013-05-20 18:44:00,67.8,58.5,29.54,South,187,7.0,18.0,72,0.00,,BKN075,0.36,VWS V14.01,2013-05-20 23:44:00,
2013-05-20 18:45:00,67.8,59.6,29.54,SSW,206,20.0,29.0,75,0.00,,,0.36,VWS V15.00,2013-05-20 23:45:00,
2013-05-20 18:49:00,67.6,58.3,29.55,South,182,7.0,13.0,72,0.00,,BKN075,0.36,VWS V14.01,2013-05-20 23:49:00,
2013-05-20 18:54:00,67.6,57.9,29.55,SSE,168,13.0,15.0,71,0.00,,BKN075,0.36,VWS V14.01,2013-05-20 23:54:00,
2013-05-20 18:59:00,67.6,57.9,29.55,South,177,9.0,17.0,71,0.00,,BKN075,0.36,VWS V14.01,2013-05-20 23:59:00,
2013-05-20 19:00:00,68.9,60.7,29.54,SSW,201,11.0,22.0,75,0.00,,,0.36,VWS V15.00,2013-05-21 00:00:00,
2013-05-20 19:04:00,67.6,57.9,29.55,South,172,12.0,14.0,71,0.00,,SCT065,0.36,VWS V14.01,2013-05-21 00:04:00,
2013-05-20 19:09:00,67.4,57.3,29.55,South,180,12.0,16.0,70,0.00,,SCT065,0.36,VWS V14.01,2013-05-21 00:09:00,
2013-05-20 19:14:00,67.3,57.2,29.55,SSE,165,10.0,16.0,70,0.00,,BKN065,0.36,VWS V14.01,2013-05-21 00:14:00,
2013-05-20 19:15:00,69.1,59.7,29.54,SSE,165,16.0,21.0,72,0.00,,,0.36,VWS V15.00,2013-05-21 00:15:00,
2013-05-20 19:19:00,67.4,56.9,29.55,South,174,8.0,13.0,69,0.00,,BKN065,0.36,VWS V14.01,2013-05-21 00:19:00,
2013-05-20 19:24:00,67.6,57.5,29.55,SSE,166,11.0,13.0,70,0.00,,BKN065,0.36,VWS V14.01,2013-05-21 00:24:00,
2013-05-20 19:29:00,67.6,57.1,29.55,SSE,159,9.0,13.0,69,0.00,,BKN065,0.36,VWS V14.01,2013-05-21 00:29:00,
2013-05-20 19:30:00,67.9,58.5,29.54,SSE,168,13.0,23.0,72,0.00,,,0.36,VWS V15.00,2013-05-21 00:30:00,
2013-05-20 19:34:00,67.4,57.3,29.56,SSE,157,10.0,11.0,70,0.00,,BKN065,0.36,VWS V14.01,2013-05-21 00:34:00,
2013-05-20 19:39:00,67.3,57.2,29.56,SSE,153,8.0,11.0,70,0.00,,BKN065,0.36,VWS V14.01,2013-05-21 00:39:00,
2013-05-20 19:44:00,66.9,57.2,29.56,SSE,154,7.0,11.0,71,0.00,,BKN080,0.36,VWS V14.01,2013-05-21 00:44:00,
2013-05-20 19:45:00,67.8,58.5,29.55,South,183,9.0,18.0,72,0.00,,,0.36,VWS V15.00,2013-05-21 00:45:00,
2013-05-20 19:49:00,66.8,57.5,29.56,SSE,154,6.0,10.0,72,0.00,,BKN080,0.36,VWS V14.01,2013-05-21 00:49:00,
2013-05-20 19:54:00,66.6,57.3,29.56,SSE,150,6.0,11.0,72,0.00,,BKN080,0.36,VWS V14.01,2013-05-21 00:54:00,
2013-05-20 19:59:00,66.3,57.8,29.56,SSE,149,7.0,11.0,74,0.00,,BKN080,0.36,VWS V14.01,2013-05-21 00:59:00,
2013-05-20 20:00:00,67.6,57.5,29.55,South,177,14.0,17.0,70,0.00,,,0.36,VWS V15.00,2013-05-21 01:00:00,
2013-05-20 20:04:00,66.0,57.9,29.56,SSE,149,9.0,9.0,75,0.00,,OVC080,0.36,VWS V14.01,2013-05-21 01:04:00,
2013-05-20 20:09:00,65.5,57.4,29.56,SSE,147,7.0,10.0,75,0.00,,OVC080,0.36,VWS V14.01,2013-05-21 01:09:00,
2013-05-20 20:14:00,65.3,57.2,29.56,SE,142,5.0,11.0,75,0.00,,OVC080,0.36,VWS V14.01,2013-05-21 01:14:00,
2013-05-20 20:15:00,67.3,57.2,29.55,South,177,10.0,16.0,70,0.00,,,0.36,VWS V15.00,2013-05-21 01:15:00,
2013-05-20 20:19:00,65.0,56.9,29.56,SE,142,10.0,10.0,75,0.00,,OVC080,0.36,VWS V14.01,2013-05-21 01:19:00,
2013-05-20 20:25:00,64.8,57.1,29.56,SE,142,4.0,10.0,76,0.00,,OVC080,0.36,VWS V14.01,2013-05-21 01:25:00,
2013-05-20 20:30:00,64.7,57.3,29.56,SE,140,5.0,10.0,77,0.00,,OVC080,0.36,VWS V14.01,2013-05-21 01:30:00,
2013-05-20 20:35:00,64.5,57.1,29.56,SE,140,8.0,9.0,77,0.00,,OVC080,0.36,VWS V14.01,2013-05-21 01:35:00,
2013-05-20 20:40:00,64.2,57.2,29.56,SE,139,5.0,9.0,78,0.00,,BKN100,0.36,VWS V14.01,2013-05-21 01:40:00,
2013-05-20 20:45:00,64.0,57.4,29.56,SE,135,4.0,9.0,79,0.00,,BKN100,0.36,VWS V14.01,2013-05-21 01:45:00,
2013-05-20 20:50:00,63.7,57.8,29.56,SE,135,1.0,6.0,81,0.00,,BKN100,0.36,VWS V14.01,2013-05-21 01:50:00,
2013-05-20 20:55:00,62.9,57.7,29.56,SE,134,2.0,6.0,83,0.00,,BKN100,0.36,VWS V14.01,2013-05-21 01:55:00,
2013-05-20 21:00:00,62.1,57.9,29.56,NE,37,5.0,6.0,86,0.00,,BKN100,0.36,VWS V14.01,2013-05-21 02:00:00,
2013-05-20 21:05:00,61.3,57.4,29.56,NNE,21,7.0,10.0,87,0.00,,BKN100,0.36,VWS V14.01,2013-05-21 02:05:00,
2013-05-20 21:10:00,60.4,56.2,29.56,NNE,12,11.0,11.0,86,0.00,,OVC003,0.36,VWS V14.01,2013-05-21 02:10:00,
2013-05-20 21:15:00,59.8,55.9,29.58,North,11,6.0,6.0,87,0.00,,OVC003,0.36,VWS V14.01,2013-05-21 02:15:00,
2013-05-20 21:20:00,59.0,55.1,29.58,NNE,14,7.0,10.0,87,0.00,,OVC003,0.36,VWS V14.01,2013-05-21 02:20:00,
2013-05-20 21:25:00,58.3,54.8,29.58,NNE,16,7.0,11.0,88,0.00,,OVC003,0.36,VWS V14.01,2013-05-21 02:25:00,
2013-05-20 21:30:00,57.6,54.4,29.58,NNE,20,4.0,9.0,89,0.00,,OVC003,0.36,VWS V14.01,2013-05-21 02:30:00,
2013-05-20 21:35:00,57.0,53.8,29.58,NNE,24,9.0,12.0,89,0.00,,OVC003,0.36,VWS V14.01,2013-05-21 02:35:00,
2013-05-20 21:40:00,56.5,53.6,29.58,NE,37,10.0,12.0,90,0.00,,OVC003,0.36,VWS V14.01,2013-05-21 02:40:00,
2013-05-20 21:45:00,56.0,53.1,29.57,NNE,25,6.0,7.0,90,0.00,,OVC003,0.36,VWS V14.01,2013-05-21 02:45:00,
2013-05-20 21:50:00,55.7,53.1,29.57,NE,41,12.0,13.0,91,0.00,,OVC003,0.36,VWS V14.01,2013-05-21 02:50:00,
2013-05-20 21:55:00,55.4,52.8,29.57,NE,35,9.0,13.0,91,0.00,,OVC003,0.36,VWS V14.01,2013-05-21 02:55:00,
2013-05-20 22:00:00,55.3,53.0,29.58,NNE,32,9.0,10.0,92,0.00,,OVC003,0.36,VWS V14.01,2013-05-21 03:00:00,
2013-05-20 22:05:00,55.1,52.8,29.58,NNE,26,11.0,12.0,92,0.00,,OVC003,0.36,VWS V14.01,2013-05-21 03:05:00,
2013-05-20 22:11:00,55.1,52.8,29.58,NE,36,11.0,12.0,92,0.00,,OVC003,0.36,VWS V14.01,2013-05-21 03:11:00,
2013-05-20 22:15:00,59.8,55.9,29.58,North,11,3.0,11.0,87,0.00,,,0.36,VWS V15.00,2013-05-21 03:15:00,
2013-05-20 22:16:00,55.0,52.7,29.58,NNE,33,11.0,12.0,92,0.00,,OVC003,0.36,VWS V14.01,2013-05-21 03:16:00,
2013-05-20 22:21:00,55.0,53.0,29.58,NE,36,10.0,12.0,93,0.00,,OVC003,0.36,VWS V14.01,2013-05-21 03:21:00,
2013-05-20 22:26:00,55.0,53.0,29.58,NNE,22,8.0,12.0,93,0.00,,OVC003,0.36,VWS V14.01,2013-05-21 03:26:00,
2013-05-20 22:30:00,57.6,54.4,29.58,NNE,19,9.0,11.0,89,0.00,,,0.36,VWS V15.00,2013-05-21 03:30:00,
2013-05-20 22:31:00,54.8,52.8,29.58,NNE,24,6.0,10.0,93,0.00,,OVC003,0.36,VWS V14.01,2013-05-21 03:31:00,
2013-05-20 22:36:00,54.8,52.8,29.58,NNE,30,5.0,11.0,93,0.00,,OVC003,0.36,VWS V14.01,2013-05-21 03:36:00,
2013-05-20 22:41:00,54.7,53.0,29.58,NNE,25,6.0,11.0,94,0.00,,OVC003,0.36,VWS V14.01,2013-05-21 03:41:00,
2013-05-20 22:45:00,56.2,53.3,29.57,NNE,26,6.0,12.0,90,0.00,,,0.36,VWS V15.00,2013-05-21 03:45:00,
2013-05-20 22:46:00,54.7,53.0,29.57,NNE,30,6.0,9.0,94,0.00,,OVC003,0.36,VWS V14.01,2013-05-21 03:46:00,
2013-05-20 22:51:00,54.7,53.0,29.57,NNE,19,11.0,12.0,94,0.00,,OVC003,0.36,VWS V14.01,2013-05-21 03:51:00,
2013-05-20 22:56:00,54.5,52.8,29.57,NE,39,11.0,12.0,94,0.00,,OVC003,0.36,VWS V14.01,2013-05-21 03:56:00,
2013-05-20 23:00:00,55.3,53.0,29.58,NNE,25,10.0,13.0,92,0.00,,,0.36,VWS V15.00,2013-05-21 04:00:00,
2013-05-20 23:01:00,54.5,52.8,29.56,NE,37,14.0,14.0,94,0.00,,OVC003,0.36,VWS V14.01,2013-05-21 04:01:00,
2013-05-20 23:02:00,54.5,52.8,29.56,NNE,30,8.0,14.0,94,0.00,,OVC003,0.36,VWS V14.01,2013-05-21 04:02:00,
2013-05-20 23:04:00,54.5,54.0,29.56,NE,38,8.0,14.0,98,0.00,,OVC003,0.36,VWS V14.01,2013-05-21 04:04:00,
2013-05-20 23:05:00,54.5,52.8,29.56,NNE,32,6.0,14.0,94,0.00,,OVC003,0.36,VWS V14.01,2013-05-21 04:05:00,
2013-05-20 23:10:00,54.5,53.1,29.56,NE,35,9.0,14.0,95,0.00,,OVC003,0.36,VWS V14.01,2013-05-21 04:10:00,
2013-05-20 23:14:00,54.5,53.1,29.56,NNE,28,10.0,14.0,95,0.00,,OVC003,0.36,VWS V14.01,2013-05-21 04:14:00,
2013-05-20 23:15:00,55.0,52.7,29.58,NNE,25,10.0,13.0,92,0.00,,,0.36,VWS V15.00,2013-05-21 04:15:00,
2013-05-20 23:19:00,54.5,53.1,29.56,NNE,26,7.0,13.0,95,0.00,,OVC003,0.36,VWS V14.01,2013-05-21 04:19:00,
2013-05-20 23:24:00,54.5,53.1,29.56,NE,40,10.0,13.0,95,0.00,,OVC003,0.36,VWS V14.01,2013-05-21 04:24:00,
2013-05-20 23:29:00,54.4,53.0,29.56,NNE,23,6.0,14.0,95,0.00,,OVC003,0.36,VWS V14.01,2013-05-21 04:29:00,
2013-05-20 23:30:00,54.8,52.8,29.58,NNE,28,10.0,12.0,93,0.00,,,0.36,VWS V15.00,2013-05-21 04:30:00,
2013-05-20 23:34:00,54.4,53.0,29.55,NNE,18,13.0,13.0,95,0.00,,OVC003,0.36,VWS V14.01,2013-05-21 04:34:00,
2013-05-20 23:39:00,54.4,53.0,29.55,NNE,14,7.0,13.0,95,0.00,,OVC003,0.36,VWS V14.01,2013-05-21 04:39:00,
2013-05-20 23:44:00,54.2,52.8,29.54,North,1,11.0,13.0,95,0.00,,OVC001,0.36,VWS V14.01,2013-05-21 04:44:00,
2013-05-20 23:45:00,54.7,53.0,29.57,NNE,22,8.0,12.0,94,0.00,,,0.36,VWS V15.00,2013-05-21 04:45:00,
2013-05-20 23:49:00,54.1,52.7,29.54,NNE,13,11.0,13.0,95,0.00,,OVC001,0.36,VWS V14.01,2013-05-21 04:49:00,
2013-05-20 23:54:00,53.9,52.5,29.54,North,352,7.0,13.0,95,0.00,,OVC001,0.36,VWS V14.01,2013-05-21 04:54:00,